{"data":{"norad_id":67004,"intl_designator":"2025-293B","name":"STARLINK-35913","alt_names":[],"object_type":"PAYLOAD","status":"ACTIVE","operator":null,"country":"US","launch_date":"2025-12-10","launch_site_code":"AFWTR","launch_vehicle":null,"mission":null,"orbit_class":"UNKNOWN","rcs_meters":null,"size_class":null,"mass_kg":null,"dimensions":null,"purposes":["comms"],"wikipedia_slug":null,"has_3d_model":false,"image_url":null,"decayed_at":null,"tle_current":{"epoch":"2026-05-25T00:50:21.942816Z","epoch_age_seconds":65921,"freshness":"FRESH","line1":"1 67004U 25293B   26145.03497619  .00002162  00000+0  18888-3 0  9991","line2":"2 67004  70.0007 261.9597 0003104 268.7328  91.3475 14.98334854 26316","mean_motion":14.98334854,"eccentricity":0.0003104,"inclination_deg":70.0007,"raan_deg":261.9597,"arg_perigee_deg":268.7328,"mean_anomaly_deg":91.3475,"bstar":0.00018888,"rev_number":2631,"period_min":96.106687777818,"perigee_km":569.88354517627,"apogee_km":574.19821560442,"semimajor_km":6950.1778803903,"source":"CELESTRAK","updated_at":"2026-05-25T13:38:21.429384Z"}}}